Change the Weather History Date:

Tuesday, June 25, 2013

  Actual Average Record
Temperature  
Mean Temperature 88 °F 83 °F  
Max Temperature 99 °F 93 °F 106 °F (2009)
Min Temperature 76 °F 74 °F 59 °F (1974)
Degree Days  
Heating Degree Days 0 0  
Month to date heating degree days 0 0  
Since 1 June heating degree days 0 0  
Since 1 July heating degree days 1354 1608  
Cooling Degree Days 23 18  
Month to date cooling degree days 466 422  
Year to date cooling degree days 1030 1010  
Since 1 June cooling degree days 466 422  
Growing Degree Days 36 (Base 50)    
Moisture  
Dew Point 71 °F    
Average Humidity 64    
Maximum Humidity 94    
Minimum Humidity 33    
Precipitation  
Precipitation 0.00 in 0.13 in 4.18 in (1960)
Month to date precipitation 1.25 3.87  
Year to date precipitation 17.52 20.12  
Sea Level Pressure  
Sea Level Pressure 29.97 in    
Wind  
Wind Speed 13 mph (South)    
Max Wind Speed 22 mph    
Max Gust Speed 28 mph    
Visibility 10 miles    
Events      
T = Trace of Precipitation, MM = Missing Value Source: NWS Daily Summary

Daily Weather History Graph

Daily Weather History Graph

Search for Another Location

Airport or City:

Trip Planner

Search our weather history database for the weather conditions in past years. The results will help you decide how hot, cold, wet, or windy it might be!

Date:

Astronomy

Jun. 25, 2013 Rise Set
Actual Time 6:24 AM CDT 8:31 PM CDT
Civil Twilight 5:56 AM CDT 8:59 PM CDT
Nautical Twilight 5:23 AM CDT 9:33 PM CDT
Astronomical Twilight 4:46 AM CDT 10:09 PM CDT
Moon 10:31 PM CDT (6/25) 8:54 AM CDT (6/25)
Length of Visible Light 15h 02m
Length of Day
14h 07m
Waning Gibbous, 92% of the Moon is Illuminated
Jun 25
Waning Gibbous
Jun 29
Last Quarter
Jul 8
New
Jul 15
First Quarter
Jul 22
Full

Hourly Weather History & Observations

Time (CDT) Temp. Heat Index Dew Point Humidity Pressure Visibility Wind Dir Wind Speed Gust Speed Precip Events Conditions
12:53 AM 81.0 °F 85.2 °F 72.0 °F 74% 29.99 in 10.0 mi South 11.5 mph - N/A   Clear
1:53 AM 79.0 °F - 73.0 °F 82% 29.99 in 10.0 mi SSE 10.4 mph - N/A   Clear
2:53 AM 79.0 °F - 73.0 °F 82% 30.01 in 10.0 mi South 8.1 mph - N/A   Clear
3:53 AM 77.0 °F - 73.0 °F 88% 30.00 in 10.0 mi South 6.9 mph - N/A   Clear
4:53 AM 77.0 °F - 73.9 °F 90% 29.99 in 10.0 mi South 8.1 mph - N/A   Scattered Clouds
5:15 AM 77.0 °F - 73.4 °F 89% 30.01 in 10.0 mi South 8.1 mph - N/A   Mostly Cloudy
5:53 AM 75.9 °F - 73.9 °F 94% 29.99 in 10.0 mi SSE 9.2 mph - N/A   Overcast
6:53 AM 77.0 °F - 73.9 °F 90% 29.99 in 9.0 mi South 9.2 mph - N/A   Overcast
7:11 AM 77.0 °F - 75.2 °F 94% 30.01 in 9.0 mi South 10.4 mph - N/A   Overcast
7:30 AM 77.0 °F - 75.2 °F 94% 30.02 in 9.0 mi South 9.2 mph - N/A   Overcast
7:53 AM 78.1 °F - 75.0 °F 90% 30.01 in 9.0 mi SSE 8.1 mph - N/A   Overcast
8:50 AM 80.6 °F 86.2 °F 75.2 °F 84% 30.03 in 10.0 mi SSE 13.8 mph - N/A   Overcast
8:53 AM 82.0 °F 89.4 °F 75.9 °F 82% 30.01 in 10.0 mi South 12.7 mph - N/A   Overcast
9:07 AM 82.4 °F 89.5 °F 75.2 °F 79% 30.03 in 10.0 mi South 11.5 mph - N/A   Overcast
9:26 AM 84.2 °F 92.3 °F 75.2 °F 74% 30.03 in 10.0 mi South 13.8 mph - N/A   Scattered Clouds
9:53 AM 84.9 °F 91.4 °F 73.0 °F 67% 30.02 in 10.0 mi South 16.1 mph 20.7 mph N/A   Mostly Cloudy
10:53 AM 89.1 °F 96.0 °F 72.0 °F 57% 30.01 in 10.0 mi South 19.6 mph 27.6 mph N/A   Clear
11:53 AM 91.9 °F 96.9 °F 69.1 °F 47% 29.99 in 10.0 mi South 16.1 mph 23.0 mph N/A   Partly Cloudy
12:53 PM 93.9 °F 98.6 °F 68.0 °F 43% 29.97 in 10.0 mi South 20.7 mph 26.5 mph N/A   Partly Cloudy
1:53 PM 95.0 °F 97.9 °F 66.0 °F 38% 29.96 in 10.0 mi SSE 11.5 mph 23.0 mph N/A   Partly Cloudy
2:53 PM 98.1 °F 101.2 °F 64.9 °F 34% 29.94 in 10.0 mi SSE 15.0 mph 27.6 mph N/A   Partly Cloudy
3:53 PM 98.1 °F 100.7 °F 64.0 °F 33% 29.92 in 10.0 mi South 15.0 mph 24.2 mph N/A   Partly Cloudy
4:53 PM 98.1 °F 101.2 °F 64.9 °F 34% 29.90 in 10.0 mi South 23.0 mph 26.5 mph N/A   Partly Cloudy
5:53 PM 97.0 °F 99.9 °F 64.9 °F 35% 29.89 in 10.0 mi SSE 16.1 mph 25.3 mph N/A   Clear
6:53 PM 95.0 °F 96.0 °F 63.0 °F 34% 29.88 in 10.0 mi South 17.3 mph - N/A   Clear
7:53 PM 91.9 °F 91.8 °F 61.0 °F 35% 29.89 in 10.0 mi South 16.1 mph 24.2 mph N/A   Clear
8:53 PM 88.0 °F 88.7 °F 63.0 °F 43% 29.90 in 10.0 mi South 9.2 mph - N/A   Clear
9:53 PM 86.0 °F 89.4 °F 68.0 °F 55% 29.91 in 10.0 mi South 13.8 mph 20.7 mph N/A   Clear
10:53 PM 84.0 °F 89.0 °F 71.1 °F 65% 29.93 in 10.0 mi South 15.0 mph - N/A   Clear
11:53 PM 82.0 °F 86.7 °F 72.0 °F 71% 29.94 in 10.0 mi South 13.8 mph - N/A   Clear